VE1RCI-13 Weather Reports


time (UTC)temp
C
wind
direction
speed
KPH
gust
KPH
rain 1hr
cm
rain 24hr
cm
rain mn
cm
humidity
%
barometer
mb
20260505070448 11 0.0 0.0 0.00 0.00 0.00 63 1009.9
20260505065436 11 0.0 0.0 0.00 0.00 0.00 63 1010.1
20260505064424 11 0.0 0.0 0.00 0.00 0.00 63 1010.0
20260505063412 11 0.0 0.0 0.00 0.00 0.00 63 1009.5
20260505062400 11 0.0 0.0 0.00 0.00 0.00 62 1009.6
20260505061348 11 0.0 0.0 0.00 0.00 0.00 62 1009.5
20260505060335 11 0.0 0.0 0.00 0.00 0.00 62 1009.6
20260505055322 11 0.0 0.0 0.00 0.00 0.00 62 1009.6
20260505054310 11 0.0 0.0 0.00 0.00 0.00 62 1009.4
20260505053258 11 0.0 0.0 0.00 0.00 0.00 61 1009.3
20260505052246 11 0.0 0.0 0.00 0.00 0.00 61 1009.3
20260505051234 12 0.0 0.0 0.00 0.00 0.00 61 1009.2
20260505050222 12 0.0 0.0 0.00 0.00 0.00 61 1009.1
20260505041121 12 0.0 0.0 0.00 0.00 0.00 61 1008.6
20260505040109 12 0.0 0.0 0.00 0.00 0.00 61 1008.5
20260505035057 12 0.0 0.0 0.00 0.00 0.00 61 1008.2
20260505034045 12 0.0 0.0 0.00 0.00 0.00 61 1008.2
20260505033032 12 0.0 0.0 0.00 0.00 0.00 61 1008.4
20260505032020 12 0.0 0.0 0.00 0.00 0.00 61 1007.7
20260505031008 12 0.0 0.0 0.00 0.00 0.00 61 1007.5
20260505025956 12 0.0 0.0 0.00 0.00 0.00 61 1007.5
20260505024944 11 0.0 0.0 0.00 0.00 0.00 61 1007.4
20260505023931 11 0.0 0.0 0.00 0.00 0.00 61 1007.3
20260505022919 11 0.0 0.0 0.00 0.00 0.00 61 1006.6
20260505021907 11 0.0 0.0 0.00 0.00 0.00 61 1007.2
20260505020855 11 0.0 0.0 0.00 0.00 0.00 61 1006.9
20260505015843 11 0.0 0.0 0.00 0.00 0.00 61 1006.8
20260505014831 11 0.0 0.0 0.00 0.00 0.00 61 1006.6
20260505013819 11 0.0 0.0 0.00 0.00 0.00 61 1006.5
20260505012806 12 0.0 0.0 0.00 0.00 0.00 61 1006.4
20260505011754 12 0.0 0.0 0.00 0.00 0.00 61 1006.3
20260505010742 12 0.0 0.0 0.00 0.00 0.00 61 1006.3
20260505005730 12 0.0 0.0 0.00 0.00 0.00 61 1006.3
20260505004718 11 0.0 0.0 0.00 0.00 0.00 61 1006.0
20260505003705 11 0.0 0.0 0.00 0.00 0.00 60 1005.9
20260505002653 11 0.0 0.0 0.00 0.00 0.00 60 1005.9
20260505001641 12 0.0 0.0 0.00 0.00 0.00 60 1006.3
20260505000629 12 0.0 0.0 0.00 0.00 0.00 59 1005.5
20260504235617 12 0.0 0.0 0.00 0.00 0.00 59 1005.5
20260504234605 12 0.0 0.0 0.00 0.00 0.00 59 1005.3
20260504233553 12 0.0 0.0 0.00 0.00 0.00 59 1005.2
20260504232540 12 0.0 0.0 0.00 0.00 0.00 59 1005.3
20260504231528 12 0.0 0.0 0.00 0.00 0.00 59 1005.2
20260504230516 12 0.0 0.0 0.00 0.00 0.00 58 1005.3
20260504225504 12 0.0 0.0 0.00 0.00 0.00 57 1004.8
20260504224452 13 0.0 0.0 0.00 0.00 0.00 57 1004.7
20260504223440 13 0.0 0.0 0.00 0.00 0.00 56 1004.6
20260504222427 13 0.0 0.0 0.00 0.00 0.00 56 1004.5
20260504221415 13 0.0 0.0 0.00 0.00 0.00 56 1004.6
20260504220403 13 0.0 0.0 0.00 0.00 0.00 55 1004.6
20260504215351 13 0.0 0.0 0.00 0.00 0.00 55 1004.4
20260504214339 14 0.0 0.0 0.00 0.00 0.00 54 1004.4
20260504213326 14 0.0 0.0 0.00 0.00 0.00 54 1004.1
20260504212314 14 0.0 0.0 0.00 0.00 0.00 53 1004.0
20260504211302 14 0.0 0.0 0.00 0.00 0.00 52 1003.9
20260504210250 14 0.0 0.0 0.00 0.00 0.00 51 1003.7
20260504205238 15 0.0 0.0 0.00 0.00 0.00 50 1003.7
20260504204226 15 0.0 0.0 0.00 0.00 0.00 49 1003.6
20260504203213 15 0.0 0.0 0.00 0.00 0.00 48 1003.6
20260504202202 16 0.0 0.0 0.00 0.00 0.00 46 1003.5
20260504201149 16 0.0 0.0 0.00 0.00 0.00 43 1003.3
20260504200137 16 0.0 0.0 0.00 0.00 0.00 42 1003.1
20260504195125 16 0.0 0.0 0.00 0.00 0.00 48 1002.7
20260504194113 16 0.0 0.0 0.00 0.00 0.00 49 1002.9
20260504193101 16 0.0 0.0 0.00 0.00 0.00 48 1002.8
20260504192049 16 0.0 0.0 0.00 0.00 0.00 47 1002.6
20260504191036 16 0.0 0.0 0.00 0.00 0.00 47 1002.6
20260504190024 16 0.0 0.0 0.00 0.00 0.00 44 1002.4
20260504185012 16 0.0 0.0 0.00 0.00 0.00 48 1002.3
20260504184000 16 0.0 0.0 0.00 0.00 0.00 49 1002.5
20260504182948 16 0.0 0.0 0.00 0.00 0.00 46 1002.6
20260504181935 16 0.0 0.0 0.00 0.00 0.00 46 1002.7
20260504180923 16 0.0 0.0 0.00 0.00 0.00 50 1002.6
20260504175911 16 0.0 0.0 0.00 0.00 0.00 50 1002.8
20260504174859 16 0.0 0.0 0.00 0.00 0.00 52 1002.5
20260504173847 16 0.0 0.0 0.00 0.00 0.00 53 1002.7
20260504172835 15 0.0 0.0 0.00 0.00 0.00 53 1002.8
20260504171822 15 0.0 0.0 0.00 0.00 0.00 53 1002.7
20260504170810 15 0.0 0.0 0.00 0.00 0.00 54 1002.5
20260504150544 12 0.0 0.0 0.00 0.00 0.00 59 1002.5
20260504140431 11 0.0 0.0 0.00 0.00 0.00 69 1002.0
20260504130319 10 0.0 0.0 0.00 0.00 0.00 78 1001.0
20260504120206 8 0.0 0.0 0.00 0.00 0.00 78 1000.4
20260504081739 7 0.0 0.0 0.00 0.00 0.00 81 995.2
20260504080726 7 0.0 0.0 0.00 0.00 0.00 81 995.0